QPF
0.12 0.10 0.07 0.10 0.11 0.07 0.07 0.06 0.04 0.05 0.07 0.07 0.07 0.09 0.12 0.12 0.13 0.12 0.07 0.06 0.05 0.05 0.06 0.08 0.08 0.06 0.05 0.04 0.05 0.06 0.11 0.18 0.21 0.16 0.11 0.09 0.09 0.08 0.08 0.07 0.06 0.05 0.05
0.15 0.11 0.06 0.05 0.06 0.05 0.05 0.05 0.04 0.05 0.07 0.06 0.06 0.08 0.09 0.07 0.07 0.09 0.08 0.06 0.05 0.05 0.06 0.08 0.07 0.06 0.06 0.05 0.04 0.05 0.07 0.14 0.20 0.18 0.13 0.10 0.10 0.09 0.08 0.07 0.05 0.04 0.05
0.11 0.07 0.04 0.03 0.04 0.04 0.05 0.05 0.05 0.05 0.05 0.07 0.07 0.07 0.05 0.05 0.05 0.06 0.06 0.07 0.05 0.05 0.05 0.05 0.04 0.06 0.06 0.06 0.04 0.05 0.06 0.10 0.17 0.17 0.12 0.09 0.09 0.09 0.09 0.07 0.06 0.05 0.05
0.04 0.04 0.03 0.02 0.03 0.05 0.05 0.05 0.06 0.05 0.08 0.10 0.09 0.07 0.06 0.05 0.04 0.05 0.08 0.09 0.07 0.05 0.06 0.05 0.04 0.05 0.06 0.07 0.07 0.06 0.05 0.05 0.14 0.19 0.14 0.09 0.08 0.08 0.10 0.09 0.07 0.05 0.05
0.03 0.02 0.02 0.01 0.02 0.02 0.03 0.04 0.05 0.05 0.08 0.08 0.07 0.07 0.05 0.05 0.06 0.06 0.07 0.08 0.07 0.05 0.05 0.04 0.04 0.05 0.07 0.08 0.08 0.06 0.05 0.04 0.07 0.17 0.19 0.12 0.09 0.07 0.08 0.08 0.06 0.04 0.04
0.02 0.01 0.01 0.01 0.01 0.01 0.02 0.02 0.02 0.03 0.05 0.07 0.07 0.09 0.08 0.07 0.07 0.08 0.08 0.08 0.07 0.06 0.06 0.04 0.03 0.05 0.06 0.07 0.06 0.05 0.04 0.04 0.04 0.07 0.14 0.14 0.11 0.09 0.09 0.08 0.07 0.04 0.04
0.02 0.01 0.01 0.01 0.01 0.02 0.02 0.03 0.02 0.03 0.05 0.06 0.08 0.07 0.08 0.07 0.07 0.07 0.08 0.08 0.07 0.08 0.07 0.06 0.05 0.04 0.04 0.04 0.03 0.04 0.05 0.05 0.05 0.03 0.05 0.10 0.14 0.14 0.13 0.11 0.09 0.07 0.04
0.03 0.02 0.01 0.01 0.01 0.02 0.03 0.03 0.02 0.02 0.03 0.05 0.04 0.04 0.04 0.04 0.05 0.05 0.06 0.07 0.07 0.07 0.08 0.10 0.07 0.06 0.06 0.05 0.03 0.04 0.05 0.06 0.05 0.03 0.03 0.05 0.08 0.11 0.12 0.12 0.11 0.09 0.08
0.04 0.04 0.03 0.02 0.02 0.02 0.02 0.02 0.02 0.01 0.01 0.02 0.02 0.02 0.03 0.04 0.04 0.04 0.04 0.06 0.06 0.04 0.04 0.06 0.05 0.07 0.06 0.06 0.06 0.06 0.05 0.06 0.06 0.05 0.04 0.05 0.05 0.06 0.07 0.08 0.11 0.12 0.10
0.04 0.04 0.04 0.03 0.03 0.02 0.02 0.02 0.01 0.01 0.01 0.02 0.02 0.03 0.02 0.02 0.03 0.03 0.03 0.04 0.04 0.03 0.03 0.03 0.03 0.03 0.03 0.05 0.08 0.09 0.06 0.06 0.08 0.08 0.07 0.07 0.07 0.07 0.05 0.06 0.09 0.14 0.15
0.03 0.03 0.03 0.02 0.02 0.02 0.02 0.02 0.01 0.01 0.01 0.01 0.01 0.03 0.04 0.04 0.04 0.03 0.04 0.04 0.03 0.03 0.04 0.03 0.03 0.03 0.04 0.03 0.06 0.10 0.09 0.09 0.08 0.09 0.11 0.13 0.11 0.09 0.08 0.09 0.09 0.09 0.13
0.03 0.02 0.01 0.02 0.02 0.02 0.02 0.02 0.02 0.01 0.01 0.01 0.01 0.02 0.03 0.05 0.05 0.05 0.04 0.03 0.03 0.03 0.03 0.04 0.04 0.04 0.03 0.03 0.03 0.05 0.06 0.09 0.09 0.09 0.12 0.14 0.14 0.11 0.09 0.11 0.11 0.10 0.09
0.02 0.01 0.02 0.02 0.03 0.02 0.03 0.03 0.04 0.02 0.02 0.02 0.02 0.02 0.02 0.03 0.03 0.04 0.05 0.03 0.02 0.02 0.03 0.03 0.03 0.04 0.03 0.03 0.04 0.06 0.04 0.04 0.05 0.06 0.06 0.08 0.08 0.09 0.09 0.08 0.11 0.10 0.08
0.01 0.02 0.03 0.03 0.03 0.03 0.03 0.03 0.04 0.03 0.03 0.02 0.02 0.03 0.03 0.02 0.03 0.03 0.03 0.04 0.03 0.03 0.03 0.03 0.03 0.03 0.03 0.03 0.04 0.04 0.03 0.03 0.02 0.03 0.04 0.04 0.05 0.06 0.06 0.06 0.07 0.10 0.08
0.02 0.03 0.03 0.03 0.03 0.03 0.03 0.03 0.03 0.03 0.03 0.02 0.04 0.05 0.03 0.02 0.03 0.03 0.03 0.04 0.04 0.04 0.03 0.04 0.04 0.02 0.02 0.02 0.03 0.03 0.03 0.02 0.02 0.02 0.03 0.03 0.03 0.04 0.04 0.04 0.04 0.07 0.08
0.04 0.05 0.04 0.02 0.02 0.02 0.02 0.02 0.02 0.02 0.02 0.03 0.04 0.04 0.03 0.04 0.04 0.03 0.03 0.03 0.05 0.05 0.04 0.03 0.03 0.02 0.02 0.03 0.04 0.03 0.03 0.03 0.02 0.02 0.02 0.02 0.02 0.02 0.02 0.02 0.03 0.04 0.05
0.10 0.08 0.03 0.01 0.01 0.02 0.02 0.02 0.02 0.03 0.03 0.03 0.03 0.05 0.04 0.04 0.03 0.03 0.03 0.03 0.05 0.05 0.05 0.05 0.04 0.04 0.06 0.05 0.06 0.04 0.04 0.03 0.03 0.03 0.02 0.02 0.01 0.01 0.01 0.01 0.01 0.02 0.03
0.09 0.04 0.02 0.01 0.01 0.01 0.02 0.02 0.03 0.05 0.05 0.05 0.06 0.07 0.04 0.03 0.02 0.01 0.02 0.02 0.03 0.04 0.04 0.04 0.04 0.04 0.04 0.05 0.06 0.06 0.04 0.03 0.03 0.03 0.02 0.01 0.01 0.01 0.01 0.01 0.01 0.01 0.02
0.04 0.02 0.01 0.01 0.01 0.02 0.03 0.03 0.05 0.05 0.06 0.07 0.06 0.05 0.04 0.03 0.02 0.01 0.02 0.02 0.03 0.03 0.05 0.04 0.04 0.04 0.04 0.04 0.06 0.07 0.04 0.04 0.04 0.03 0.02 0.02 0.01 0.02 0.02 0.01 0.01 0.01 0.01
0.02 0.01 0.01 0.02 0.02 0.03 0.04 0.05 0.04 0.04 0.05 0.06 0.05 0.04 0.05 0.05 0.03 0.02 0.02 0.02 0.02 0.03 0.05 0.06 0.05 0.04 0.04 0.05 0.06 0.08 0.09 0.07 0.05 0.04 0.03 0.03 0.02 0.02 0.02 0.02 0.02 0.02 0.02
0.02 0.02 0.02 0.03 0.03 0.04 0.04 0.03 0.02 0.02 0.02 0.02 0.02 0.03 0.03 0.04 0.04 0.04 0.03 0.03 0.03 0.04 0.05 0.06 0.06 0.06 0.07 0.07 0.06 0.07 0.08 0.06 0.05 0.04 0.04 0.05 0.03 0.02 0.02 0.02 0.02 0.02 0.02
0.02 0.02 0.03 0.03 0.02 0.03 0.03 0.02 0.02 0.02 0.01 0.01 0.01 0.01 0.02 0.02 0.03 0.04 0.05 0.06 0.05 0.05 0.05 0.05 0.05 0.04 0.03 0.03 0.04 0.05 0.05 0.05 0.04 0.04 0.05 0.05 0.05 0.03 0.02 0.02 0.02 0.02 0.02
0.02 0.02 0.03 0.02 0.02 0.03 0.03 0.02 0.02 0.02 0.02 0.01 0.01 0.01 0.01 0.01 0.01 0.01 0.02 0.02 0.02 0.03 0.04 0.05 0.05 0.03 0.02 0.02 0.03 0.03 0.03 0.04 0.04 0.05 0.06 0.04 0.04 0.04 0.03 0.03 0.03 0.04 0.04
0.04 0.04 0.04 0.03 0.03 0.02 0.02 0.02 0.01 0.01 0.01 0.01 0.00 0.01 0.01 0.01 0.00 0.00 0.00 0.00 0.00 0.01 0.02 0.02 0.01 0.01 0.01 0.01 0.02 0.01 0.02 0.02 0.03 0.03 0.05 0.05 0.05 0.04 0.02 0.02 0.03 0.04 0.05
0.05 0.05 0.05 0.04 0.03 0.02 0.02 0.02 0.02 0.01 0.01 0.01 0.01 0.01 0.01 0.01 0.01 0.01 0.01 0.01 0.01 0.01 0.02 0.02 0.01 0.01 0.01 0.02 0.02 0.01 0.02 0.03 0.02 0.02 0.03 0.05 0.05 0.06 0.05 0.04 0.05 0.05 0.05
0.05 0.06 0.05 0.04 0.03 0.02 0.03 0.02 0.02 0.02 0.02 0.02 0.02 0.02 0.03 0.02 0.02 0.02 0.02 0.01 0.01 0.01 0.02 0.01 0.01 0.01 0.01 0.01 0.01 0.01 0.02 0.03 0.03 0.02 0.03 0.04 0.04 0.05 0.06 0.06 0.07 0.06 0.05
MSLP
1007.86 1007.53 1007.15 1006.75 1006.34 1005.93 1005.56 1005.22 1004.92 1004.65 1004.42 1004.20 1004.01 1003.84 1003.69 1003.57 1003.48 1003.45 1003.46 1003.53 1003.63 1003.74 1003.81 1003.79 1003.62 1003.27 1002.72 1001.99 1001.16 1000.33 999.61 999.16 999.09 999.48 1000.34 1001.62 1003.22 1004.99 1006.77 1008.41 1009.80 1010.90 1011.72
1008.13 1007.80 1007.44 1007.05 1006.65 1006.26 1005.89 1005.54 1005.23 1004.96 1004.74 1004.54 1004.37 1004.21 1004.05 1003.90 1003.76 1003.64 1003.56 1003.53 1003.55 1003.60 1003.66 1003.66 1003.54 1003.26 1002.77 1002.08 1001.25 1000.36 999.55 998.95 998.73 998.95 999.67 1000.84 1002.38 1004.14 1005.96 1007.67 1009.17 1010.38 1011.31
1008.34 1008.04 1007.71 1007.36 1007.00 1006.62 1006.26 1005.91 1005.60 1005.34 1005.13 1004.96 1004.81 1004.68 1004.53 1004.36 1004.17 1003.97 1003.78 1003.64 1003.55 1003.52 1003.53 1003.52 1003.44 1003.22 1002.81 1002.20 1001.42 1000.55 999.71 999.04 998.71 998.80 999.38 1000.43 1001.87 1003.57 1005.36 1007.10 1008.64 1009.92 1010.92
1008.53 1008.28 1008.01 1007.72 1007.41 1007.07 1006.72 1006.38 1006.07 1005.81 1005.61 1005.46 1005.35 1005.25 1005.12 1004.94 1004.71 1004.43 1004.13 1003.86 1003.64 1003.50 1003.42 1003.38 1003.31 1003.14 1002.82 1002.31 1001.63 1000.84 1000.04 999.38 999.00 999.01 999.48 1000.41 1001.73 1003.31 1005.03 1006.71 1008.24 1009.54 1010.59
1008.74 1008.56 1008.38 1008.16 1007.90 1007.61 1007.28 1006.94 1006.63 1006.37 1006.18 1006.05 1005.97 1005.90 1005.79 1005.61 1005.35 1005.00 1004.60 1004.19 1003.83 1003.55 1003.36 1003.24 1003.15 1003.02 1002.77 1002.38 1001.84 1001.18 1000.49 999.90 999.54 999.53 999.92 1000.73 1001.91 1003.36 1004.95 1006.53 1008.00 1009.27 1010.32
1008.99 1008.89 1008.79 1008.65 1008.46 1008.21 1007.90 1007.57 1007.25 1006.99 1006.80 1006.68 1006.63 1006.58 1006.50 1006.34 1006.06 1005.65 1005.16 1004.63 1004.13 1003.70 1003.38 1003.16 1003.02 1002.89 1002.71 1002.43 1002.03 1001.54 1001.01 1000.54 1000.26 1000.26 1000.60 1001.32 1002.36 1003.65 1005.08 1006.52 1007.88 1009.08 1010.10
1009.27 1009.24 1009.21 1009.15 1009.02 1008.81 1008.53 1008.20 1007.88 1007.60 1007.40 1007.30 1007.26 1007.25 1007.20 1007.06 1006.78 1006.35 1005.80 1005.17 1004.55 1003.98 1003.52 1003.19 1002.97 1002.83 1002.68 1002.50 1002.23 1001.90 1001.54 1001.22 1001.04 1001.09 1001.42 1002.05 1002.97 1004.10 1005.35 1006.62 1007.84 1008.93 1009.89
1009.53 1009.56 1009.59 1009.59 1009.52 1009.35 1009.09 1008.77 1008.44 1008.15 1007.95 1007.85 1007.83 1007.84 1007.83 1007.72 1007.47 1007.05 1006.47 1005.79 1005.08 1004.40 1003.82 1003.38 1003.07 1002.88 1002.74 1002.61 1002.45 1002.25 1002.04 1001.87 1001.80 1001.91 1002.24 1002.81 1003.61 1004.58 1005.65 1006.76 1007.82 1008.80 1009.68
1009.74 1009.79 1009.87 1009.92 1009.89 1009.75 1009.52 1009.21 1008.89 1008.60 1008.40 1008.30 1008.29 1008.33 1008.36 1008.30 1008.09 1007.71 1007.15 1006.46 1005.70 1004.95 1004.28 1003.74 1003.34 1003.07 1002.90 1002.78 1002.68 1002.57 1002.48 1002.42 1002.45 1002.62 1002.96 1003.48 1004.18 1005.01 1005.92 1006.86 1007.78 1008.64 1009.44
1009.83 1009.90 1010.00 1010.08 1010.08 1009.99 1009.79 1009.51 1009.20 1008.92 1008.72 1008.63 1008.63 1008.69 1008.75 1008.74 1008.60 1008.27 1007.77 1007.11 1006.36 1005.58 1004.86 1004.24 1003.76 1003.41 1003.18 1003.02 1002.92 1002.86 1002.82 1002.83 1002.93 1003.14 1003.48 1003.97 1004.59 1005.31 1006.09 1006.90 1007.68 1008.44 1009.17
1009.80 1009.86 1009.97 1010.07 1010.11 1010.06 1009.90 1009.66 1009.38 1009.12 1008.93 1008.84 1008.84 1008.92 1009.01 1009.04 1008.96 1008.71 1008.28 1007.69 1006.98 1006.23 1005.49 1004.83 1004.27 1003.85 1003.53 1003.32 1003.17 1003.09 1003.06 1003.10 1003.22 1003.45 1003.79 1004.25 1004.82 1005.46 1006.15 1006.85 1007.54 1008.22 1008.88
1009.63 1009.69 1009.80 1009.92 1009.99 1009.99 1009.88 1009.69 1009.45 1009.21 1009.03 1008.94 1008.94 1009.01 1009.12 1009.18 1009.15 1008.98 1008.63 1008.13 1007.50 1006.80 1006.09 1005.41 1004.82 1004.32 1003.93 1003.63 1003.41 1003.27 1003.20 1003.22 1003.33 1003.55 1003.89 1004.33 1004.86 1005.46 1006.09 1006.73 1007.37 1007.99 1008.61
1009.36 1009.41 1009.53 1009.66 1009.77 1009.81 1009.76 1009.62 1009.42 1009.22 1009.05 1008.95 1008.93 1008.99 1009.08 1009.16 1009.17 1009.05 1008.79 1008.38 1007.85 1007.24 1006.58 1005.93 1005.32 1004.78 1004.32 1003.94 1003.63 1003.41 1003.27 1003.24 1003.32 1003.51 1003.83 1004.26 1004.77 1005.35 1005.95 1006.57 1007.18 1007.77 1008.37
1009.02 1009.07 1009.20 1009.35 1009.49 1009.57 1009.56 1009.47 1009.32 1009.14 1008.98 1008.87 1008.83 1008.85 1008.92 1008.98 1009.00 1008.93 1008.75 1008.43 1008.01 1007.49 1006.92 1006.32 1005.74 1005.18 1004.68 1004.23 1003.84 1003.54 1003.33 1003.22 1003.24 1003.40 1003.68 1004.09 1004.59 1005.16 1005.76 1006.38 1006.99 1007.58 1008.17
1008.65 1008.71 1008.83 1009.00 1009.16 1009.27 1009.31 1009.27 1009.15 1008.99 1008.83 1008.71 1008.63 1008.61 1008.64 1008.68 1008.69 1008.65 1008.52 1008.29 1007.96 1007.55 1007.07 1006.56 1006.03 1005.50 1004.98 1004.50 1004.06 1003.69 1003.40 1003.22 1003.18 1003.27 1003.52 1003.89 1004.38 1004.94 1005.55 1006.17 1006.79 1007.39 1007.99
1008.27 1008.33 1008.46 1008.63 1008.81 1008.94 1009.01 1009.00 1008.91 1008.77 1008.61 1008.47 1008.36 1008.30 1008.29 1008.29 1008.29 1008.25 1008.15 1007.99 1007.75 1007.44 1007.07 1006.65 1006.20 1005.73 1005.25 1004.77 1004.30 1003.89 1003.54 1003.29 1003.18 1003.21 1003.39 1003.72 1004.17 1004.71 1005.31 1005.94 1006.57 1007.19 1007.79
1007.88 1007.94 1008.07 1008.24 1008.42 1008.56 1008.64 1008.65 1008.58 1008.46 1008.31 1008.16 1008.03 1007.94 1007.89 1007.86 1007.83 1007.79 1007.71 1007.59 1007.42 1007.20 1006.93 1006.62 1006.26 1005.88 1005.46 1005.01 1004.57 1004.14 1003.76 1003.46 1003.28 1003.23 1003.34 1003.59 1003.98 1004.48 1005.05 1005.66 1006.29 1006.92 1007.53
1007.48 1007.54 1007.66 1007.81 1007.98 1008.11 1008.20 1008.22 1008.17 1008.07 1007.93 1007.79 1007.67 1007.56 1007.48 1007.43 1007.38 1007.32 1007.25 1007.16 1007.03 1006.88 1006.70 1006.48 1006.23 1005.94 1005.61 1005.23 1004.83 1004.43 1004.04 1003.71 1003.46 1003.34 1003.36 1003.52 1003.82 1004.24 1004.76 1005.34 1005.95 1006.57 1007.19
1007.07 1007.11 1007.20 1007.33 1007.48 1007.60 1007.68 1007.71 1007.68 1007.61 1007.50 1007.38 1007.27 1007.18 1007.09 1007.03 1006.96 1006.90 1006.82 1006.73 1006.63 1006.52 1006.40 1006.27 1006.11 1005.91 1005.68 1005.39 1005.06 1004.70 1004.33 1003.98 1003.70 1003.50 1003.42 1003.48 1003.68 1004.01 1004.44 1004.96 1005.53 1006.14 1006.76
1006.62 1006.64 1006.70 1006.81 1006.93 1007.03 1007.11 1007.14 1007.13 1007.08 1007.01 1006.94 1006.86 1006.79 1006.73 1006.66 1006.59 1006.51 1006.42 1006.33 1006.23 1006.14 1006.06 1005.97 1005.89 1005.78 1005.64 1005.45 1005.21 1004.91 1004.58 1004.24 1003.93 1003.67 1003.51 1003.47 1003.55 1003.77 1004.11 1004.56 1005.08 1005.65 1006.26
1006.16 1006.14 1006.18 1006.25 1006.34 1006.42 1006.49 1006.52 1006.52 1006.50 1006.48 1006.45 1006.42 1006.39 1006.36 1006.31 1006.25 1006.16 1006.06 1005.94 1005.83 1005.73 1005.66 1005.60 1005.57 1005.53 1005.47 1005.37 1005.22 1005.00 1004.72 1004.41 1004.10 1003.81 1003.59 1003.46 1003.44 1003.56 1003.81 1004.17 1004.63 1005.16 1005.75
1005.70 1005.64 1005.64 1005.68 1005.74 1005.79 1005.83 1005.86 1005.87 1005.87 1005.88 1005.89 1005.92 1005.94 1005.95 1005.93 1005.89 1005.80 1005.68 1005.55 1005.41 1005.29 1005.20 1005.16 1005.14 1005.15 1005.16 1005.13 1005.06 1004.93 1004.72 1004.46 1004.17 1003.88 1003.62 1003.44 1003.35 1003.39 1003.55 1003.84 1004.24 1004.72 1005.28
1005.26 1005.17 1005.13 1005.13 1005.15 1005.16 1005.16 1005.16 1005.16 1005.17 1005.20 1005.25 1005.32 1005.39 1005.45 1005.47 1005.45 1005.38 1005.26 1005.12 1004.96 1004.81 1004.71 1004.65 1004.64 1004.67 1004.71 1004.75 1004.75 1004.69 1004.56 1004.36 1004.12 1003.85 1003.60 1003.40 1003.28 1003.26 1003.37 1003.60 1003.95 1004.39 1004.90
1004.88 1004.74 1004.66 1004.61 1004.57 1004.53 1004.48 1004.42 1004.39 1004.38 1004.40 1004.47 1004.57 1004.69 1004.80 1004.88 1004.90 1004.87 1004.77 1004.63 1004.47 1004.31 1004.18 1004.10 1004.09 1004.12 1004.18 1004.25 1004.30 1004.30 1004.24 1004.12 1003.94 1003.72 1003.51 1003.33 1003.21 1003.18 1003.27 1003.46 1003.77 1004.17 1004.64
1004.57 1004.39 1004.26 1004.14 1004.02 1003.89 1003.76 1003.63 1003.53 1003.48 1003.48 1003.54 1003.66 1003.82 1003.98 1004.12 1004.21 1004.23 1004.18 1004.08 1003.94 1003.78 1003.66 1003.57 1003.53 1003.55 1003.62 1003.70 1003.78 1003.82 1003.81 1003.75 1003.64 1003.49 1003.34 1003.21 1003.13 1003.13 1003.21 1003.40 1003.69 1004.05 1004.49
1004.35 1004.12 1003.92 1003.72 1003.50 1003.27 1003.03 1002.80 1002.60 1002.47 1002.43 1002.47 1002.60 1002.78 1002.99 1003.20 1003.37 1003.47 1003.50 1003.46 1003.38 1003.26 1003.15 1003.07 1003.03 1003.03 1003.08 1003.16 1003.24 1003.30 1003.32 1003.31 1003.26 1003.18 1003.10 1003.03 1003.01 1003.05 1003.17 1003.37 1003.65 1004.00 1004.40
Thickness
5777 5776 5775 5774 5773 5772 5771 5770 5769 5768 5767 5766 5765 5764 5763 5762 5760 5759 5758 5757 5756 5755 5754 5752 5750 5749 5747 5746 5745 5744 5743 5742 5741 5741 5740 5739 5738 5737 5736 5735 5734 5733 5732
5778 5776 5775 5774 5772 5772 5771 5770 5768 5767 5766 5765 5764 5763 5762 5761 5760 5758 5758 5757 5756 5754 5753 5751 5750 5749 5747 5746 5744 5743 5742 5741 5741 5740 5740 5739 5737 5736 5735 5734 5733 5732 5731
5778 5776 5775 5773 5772 5771 5771 5769 5767 5766 5765 5764 5762 5762 5761 5761 5760 5759 5758 5757 5755 5754 5753 5751 5750 5748 5747 5745 5744 5743 5742 5741 5741 5741 5740 5738 5737 5736 5734 5733 5732 5730 5729
5778 5776 5774 5773 5772 5771 5769 5768 5766 5764 5762 5761 5760 5761 5761 5760 5760 5760 5758 5756 5755 5754 5752 5751 5750 5748 5746 5744 5743 5742 5741 5741 5741 5741 5739 5738 5736 5734 5733 5731 5730 5728 5727
5778 5776 5774 5773 5772 5770 5768 5768 5765 5763 5760 5759 5759 5760 5760 5760 5759 5759 5757 5755 5754 5753 5752 5750 5749 5747 5745 5744 5742 5740 5740 5739 5739 5739 5738 5737 5735 5732 5730 5729 5728 5726 5725
5778 5776 5774 5773 5771 5769 5767 5765 5763 5762 5760 5759 5759 5758 5758 5759 5758 5757 5756 5755 5754 5752 5751 5749 5747 5746 5744 5742 5741 5739 5738 5737 5736 5736 5736 5734 5732 5730 5728 5726 5725 5724 5723
5777 5775 5773 5771 5770 5767 5765 5764 5762 5760 5758 5758 5754 5751 5753 5756 5755 5755 5754 5753 5752 5751 5749 5747 5745 5743 5742 5740 5739 5738 5737 5735 5734 5733 5732 5731 5730 5728 5725 5724 5722 5722 5721
5777 5775 5773 5770 5768 5766 5764 5762 5760 5757 5756 5757 5751 5745 5740 5743 5748 5752 5750 5749 5748 5748 5747 5745 5743 5741 5739 5738 5737 5736 5735 5733 5732 5731 5730 5728 5727 5725 5723 5721 5720 5720 5719
5776 5774 5772 5770 5768 5765 5762 5761 5759 5756 5752 5753 5752 5745 5736 5732 5737 5743 5745 5745 5745 5744 5744 5743 5741 5739 5737 5735 5734 5734 5732 5731 5729 5728 5727 5726 5724 5722 5720 5719 5718 5718 5717
5774 5773 5771 5769 5767 5765 5762 5760 5759 5756 5752 5748 5748 5748 5745 5741 5734 5732 5738 5741 5742 5740 5740 5740 5738 5736 5734 5733 5731 5731 5729 5728 5726 5726 5726 5724 5722 5719 5718 5717 5716 5716 5715
5772 5771 5769 5767 5765 5763 5761 5759 5757 5754 5752 5748 5745 5744 5743 5741 5738 5731 5728 5731 5734 5736 5737 5736 5735 5734 5732 5730 5728 5727 5726 5725 5723 5722 5722 5721 5719 5717 5715 5715 5715 5714 5713
5769 5768 5767 5765 5763 5761 5759 5757 5755 5752 5750 5747 5745 5743 5740 5736 5733 5730 5726 5726 5727 5730 5733 5733 5732 5730 5729 5727 5725 5724 5723 5722 5720 5719 5718 5717 5715 5713 5712 5712 5711 5711 5709
5765 5764 5764 5762 5760 5759 5757 5755 5752 5750 5748 5745 5743 5741 5740 5738 5736 5732 5727 5723 5723 5725 5727 5728 5728 5727 5726 5724 5723 5721 5720 5719 5717 5715 5714 5712 5711 5709 5708 5708 5707 5706 5704
5762 5762 5761 5759 5757 5756 5755 5752 5749 5747 5746 5743 5742 5739 5737 5736 5734 5732 5727 5722 5717 5716 5718 5720 5723 5723 5722 5721 5720 5718 5716 5715 5713 5712 5710 5708 5706 5705 5703 5703 5702 5700 5699
5761 5760 5758 5756 5754 5752 5751 5749 5746 5744 5742 5740 5738 5736 5734 5732 5731 5729 5726 5722 5715 5707 5707 5712 5714 5717 5717 5717 5715 5714 5712 5711 5709 5708 5706 5704 5702 5700 5699 5698 5697 5695 5694
5758 5757 5754 5752 5750 5749 5747 5744 5742 5740 5737 5735 5734 5731 5729 5728 5726 5724 5721 5719 5715 5709 5704 5707 5708 5710 5711 5711 5710 5708 5707 5705 5704 5703 5701 5699 5698 5696 5694 5693 5691 5689 5688
5755 5752 5750 5748 5746 5744 5742 5739 5737 5735 5732 5730 5729 5726 5724 5722 5720 5718 5716 5713 5709 5706 5700 5701 5703 5704 5703 5702 5702 5701 5700 5698 5697 5696 5695 5694 5692 5691 5689 5687 5686 5684 5683
5752 5749 5747 5744 5742 5739 5737 5734 5732 5730 5727 5724 5722 5720 5718 5717 5714 5712 5709 5707 5704 5701 5697 5693 5694 5694 5694 5695 5694 5693 5692 5691 5690 5690 5689 5688 5686 5685 5683 5682 5681 5679 5678
5748 5745 5743 5739 5736 5734 5732 5729 5727 5724 5722 5719 5717 5714 5712 5710 5707 5705 5702 5700 5698 5696 5692 5688 5687 5687 5687 5687 5685 5684 5684 5683 5683 5684 5682 5681 5680 5679 5677 5675 5674 5673 5672
5742 5739 5737 5734 5731 5729 5727 5724 5721 5718 5716 5714 5712 5709 5707 5704 5701 5699 5697 5694 5692 5688 5685 5682 5679 5678 5678 5679 5677 5675 5673 5674 5674 5676 5675 5675 5673 5672 5670 5670 5668 5667 5667
5737 5734 5730 5727 5725 5723 5721 5718 5715 5712 5709 5706 5705 5703 5701 5699 5698 5695 5692 5688 5685 5681 5677 5674 5672 5670 5670 5668 5667 5668 5666 5665 5667 5667 5666 5666 5666 5665 5664 5663 5663 5662 5662
5730 5727 5724 5721 5718 5717 5715 5713 5709 5705 5702 5699 5696 5695 5694 5693 5691 5689 5687 5684 5681 5676 5671 5668 5665 5663 5662 5662 5661 5660 5658 5655 5655 5660 5657 5658 5659 5658 5657 5657 5657 5658 5657
5723 5719 5716 5714 5711 5710 5709 5706 5703 5699 5695 5692 5690 5688 5687 5687 5684 5682 5680 5677 5675 5672 5669 5665 5661 5659 5658 5657 5655 5653 5651 5649 5649 5652 5651 5651 5653 5651 5653 5653 5652 5652 5651
5717 5713 5710 5707 5705 5705 5703 5700 5697 5693 5689 5686 5684 5681 5679 5678 5677 5675 5672 5670 5667 5666 5664 5662 5659 5658 5657 5655 5652 5649 5646 5644 5645 5645 5644 5642 5645 5646 5648 5648 5647 5647 5646
5709 5707 5704 5701 5699 5698 5696 5693 5690 5685 5682 5679 5678 5676 5674 5671 5671 5668 5665 5662 5660 5659 5660 5658 5656 5654 5653 5652 5648 5644 5640 5636 5635 5637 5638 5635 5638 5638 5640 5640 5641 5640 5639
5704 5701 5697 5695 5692 5690 5689 5686 5683 5679 5674 5672 5671 5669 5668 5666 5664 5661 5657 5654 5652 5652 5651 5651 5649 5648 5647 5646 5644 5640 5636 5631 5629 5629 5632 5630 5630 5630 5630 5633 5633 5633 5632